Regional Weather Roundup
Issued by NWS

Home | Current Version | Previous Version | Graphics & Text | Print | Product List | Glossary On
Versions: 1 2 3 4 5 6 7 8 9 10 11 12 13 14 15 16 17 18 19 20 21 22 23 24 25 26 27 28 29 30 31 32 33 34 35 36 37 38 39 40 41 42 43 44 45 46 47 48 49 50
872
ASUS43 KMKX 220411
RWRWI

WISCONSIN REGIONAL WEATHER ROUNDUP
NATIONAL WEATHER SERVICE MILWAUKEE/SULLIVAN WI
1100 PM CDT SAT OCT 21 2017

NOTE: "FAIR" INDICATES FEW OR NO CLOUDS BELOW 12,000 FEET WITH NO
SIGNIFICANT WEATHER AND/OR OBSTRUCTIONS TO VISIBILITY.

WIZ001-002-006>008-014>016-023>028-220500-
NORTHWEST WISCONSIN

CITY           SKY/WX    TMP DP  RH WIND       PRES   REMARKS
SUPERIOR ARPT  DRIZZLE   64  61  90 W15G28    29.66R
ASHLAND        LGT RAIN  64  60  87 S7        29.71S
HAYWARD        LGT RAIN  63  60  90 S8        29.73R
SIREN          RAIN      54  51  92 W9        29.76R
CUMBERLAND     CLOUDY    55  52  88 W14       29.76R
RICE LAKE      DRIZZLE   60  55  85 SW9G22    29.77R
CHETEK         RAIN      63  62  96 S8        29.76R
LADYSMITH      RAIN      64  60  86 S17G30    29.79R
EAU CLAIRE     LGT RAIN  61  59  93 S9        29.78R
MENOMONIE      CLOUDY    58  58 100 W13       29.78R
NEW RICHMOND   CLOUDY    55  48  78 W8        29.79R
OSCEOLA        CLOUDY    54  54 100 SW3       29.82R
$$

WIZ003>005-009-010-017-018-220500-
NORTH CENTRAL WISCONSIN

CITY           SKY/WX    TMP DP  RH WIND       PRES   REMARKS
MANITOWISH WTR CLOUDY    66  59  77 S14G21    29.79S
ARBOR VITAE    CLOUDY    68  58  72 S14G20    29.80S
WOODRUFF       CLOUDY    68  58  72 S14G20    29.80S
RHINELANDER    CLOUDY    67  58  72 S8G20     29.83S
EAGLE RIVER    NOT AVBL
LAND O LAKES   MOCLDY    66  56  68 S13G18    29.83S
PHILLIPS       CLOUDY    67  59  75 S15G23    29.77S
TOMAHAWK       CLOUDY    65  56  72 S5        29.82S
MEDFORD        CLOUDY    65  57  73 S15G22    29.80R THUNDER
MERRILL        CLOUDY    67  58  70 S9        29.83S
$$

WIZ029-030-035-036-043>047-220500-
CENTRAL WISCONSIN

CITY           SKY/WX    TMP DP  RH WIND       PRES   REMARKS
WAUSAU         PTCLDY    67  57  70 S15       29.83R
MOSINEE        PTCLDY    66  57  72 S15G24    29.85R
MARSHFIELD     CLOUDY    66  56  70 S8        29.82R
STEVENS POINT  MOCLDY    66  57  71 S12G17    29.86R
WAUPACA        PTCLDY    68  58  69 SE7       29.87F
WAUTOMA        PTCLDY   N/A N/A N/A S10       29.87S
WISC RAPIDS    CLOUDY    69  59  70 S12       29.84S
CAMP DOUGLAS   CLOUDY    70  61  73 S13G22    29.82R
$$

WIZ011>013-019>022-031-037>040-048>050-220500-
NORTHEAST WISCONSIN

CITY           SKY/WX    TMP DP  RH WIND       PRES   REMARKS
ANTIGO         CLOUDY    65  56  73 S17G23    29.87R
SHAWANO        CLEAR     65  56  74 S3        29.87S
OCONTO         CLEAR     63  56  79 S9        29.89S
STURGEON BAY   CLEAR     62  56  80 S18G30    29.92S
GREEN BAY      CLEAR     66  59  78 S12       29.90R
MANITOWOC      PTCLDY    61  56  83 S21       29.94S
APPLETON       PTCLDY    64  54  68 S12       29.88S
CLINTONVILLE   CLEAR     64  55  72 S8        29.87S
OSHKOSH        PTCLDY    68  59  73 S16       29.89S
$$

WIZ032>034-041-042-053>061-220500-
SOUTHWEST WISCONSIN

CITY           SKY/WX    TMP DP  RH WIND       PRES   REMARKS
LA CROSSE      RAIN      63  61  93 S8        29.82R
SPARTA         CLOUDY    71  60  69 SW9G26    29.83R THUNDER
VIROQUA        CLOUDY    65  58  77 SW22G33   29.86R
BOSCOBEL       CLOUDY    73  61  65 S12G21    29.83R
PRAIRIE DU CHI CLOUDY    72  59  64 W14G26    29.84R
PLATTEVILLE    CLOUDY    69  61  75 S17       29.88S
$$

WIZ056-057-062-063-064-067-068-220500-
SOUTH CENTRAL WISCONSIN

CITY           SKY/WX    TMP DP  RH WIND       PRES   REMARKS
REEDSBURG      PTCLDY    69  60  73 S16G22    29.86R
BARABOO/DELLS  PTCLDY    68  58  68 S17G23    29.87S
LONE ROCK      PTCLDY    71  62  73 S15G22    29.85S
MINERAL POINT  CLOUDY    70  61  73 S13G18    29.89R
MADISON        PTCLDY    69  58  67 S13G22    29.90S
MIDDLETON      MOCLDY    71  58  65 S15G21    29.90S
WATERTOWN      CLOUDY    69  60  72 S15       29.93R
MONROE         CLOUDY    68  55  64 S16G24    29.92S
JANESVILLE     CLOUDY    70  57  64 S9G21     29.93S
$$

WIZ051-052-058>065-066-070>072-220500-
SOUTHEAST WISCONSIN

CITY           SKY/WX    TMP DP  RH WIND       PRES   REMARKS
MILWAUKEE      MOCLDY    68  58  70 S10       29.97R
WAUKESHA       CLOUDY    66  55  68 S16G24    29.97R
MILWAUKEE/TIMM MOCLDY    68  54  60 S12G18    29.97R
RACINE         PTCLDY    64  57  78 S10       29.99S
BURLINGTON     CLOUDY    67  59  74 S9G16     29.97R
KENOSHA        PTCLDY    69  57  65 S13       29.98R
FOND DU LAC    PTCLDY    70  56  61 S14G22    29.91S
SHEBOYGAN      CLEAR     62  58  86 S14       29.94F
WEST BEND      CLOUDY    63  57  82 S7        29.94F
JUNEAU         CLOUDY    68  58  69 S18G24    29.93R
$$

LSZ147-162-220500-
LAKE SUPERIOR

STATION/POSITION TIME  TEMP    WIND        PRES    WAVE
                       AIR SEA DIR/SP/G            HT/PER
                 (UTC) (F)     (DEG/KT/KT) (MB)    (FT/S)
W MID LAKE BUOY  0350   58 52              1005.8F   1/ 4
DEVILS ISLAND    0400   65     170/ 12/ 16 1005.2F
PORT WING        0140          180/ 10/ 18 1005.1
SAXON HARBOR     0330   71     200/  7/ 12 1006.1R
$$

LMZ867-665-643>646-220500-
LAKE MICHIGAN

STATION/POSITION TIME  TEMP    WIND        PRES    WAVE
                       AIR SEA DIR/SP/G            HT/PER
                 (UTC) (F)     (DEG/KT/KT) (MB)    (FT/S)
S GREEN BAY BUOY 0400   64 58  170/ 19/ 23 1011.9
N MID LAKE BUOY  0350   64 58  170/ 21/ 25 1013.6F   6/ 6
NORTHPORT PIER   0340   60     150/ 10/ 16 1013.2F
KEWAUNEE LAKESHO 0348   55     180/ 11/ 13 1012.9F
SHEBOYGAN LAKESH 0400   56     180/ 18/ 18 1013.9F
PORT WASHINGTON  0340   57     200/  7/ 11 1015.2F
ATWATER BUOY     0209   58 52  160/ 16/ 19 1014.5F
MILWAUKEE LAKESH 0350   58     150/ 14/ 15   N/A
S MID LAKE BUOY  0350   64 61  160/ 17/ 21 1016.1S   3/ 4
KENOSHA   LAKESH 0400   60     170/ 19/ 19 1015.2
$$

TC  - TEMPERATURE IN CELSIUS
VSB - VISIBILITY IN STATUTE MILES
WCI - WIND CHILL INDEX
HX  - HEAT INDEX





USA.gov is the U.S. government's official web portal to all federal, state and local government web resources and services.